Commit Graph

  • c97b6bf11f libnotifyplugin (short summary): begin body in lowercase Patrick Ulbrich 2015-12-27 18:27:10 +01:00
  • b97e851ac0 Add support for noification settings in GNOME-Control-Center. Closes #106 Patrick Ulbrich 2015-12-27 18:18:19 +01:00
  • b77ce72951 Update translations / add indonesian translation Patrick Ulbrich 2015-12-27 14:02:07 +01:00
  • 507e2726de Update translator credits Patrick Ulbrich 2015-12-27 13:46:20 +01:00
  • ba76aef379 Remove obsolete comment Patrick Ulbrich 2015-12-25 14:00:50 +01:00
  • 73914fdf7f Simplify plugindialog Patrick Ulbrich 2015-12-21 19:16:20 +01:00
  • 7256dc6e73 Fix folder parsing. Fixes issue #108 Patrick Ulbrich 2015-12-20 20:08:12 +01:00
  • 1bfc617434 Regenerate translation template Patrick Ulbrich 2015-12-20 14:49:01 +01:00
  • a70d622017 libnotify plugin: add short summary notification mode Patrick Ulbrich 2015-12-20 14:28:58 +01:00
  • a23b83f505 libnotifyplugin: Don't remove notifications (except on program shutdown) Patrick Ulbrich 2015-12-13 18:23:37 +01:00
  • 99e2c16320 Make config window resizable. Fixes issue #107 Patrick Ulbrich 2015-12-13 16:34:09 +01:00
  • 90d50b2a16 Vastly improved account dialog (closes issue #85) Patrick Ulbrich 2015-12-13 15:47:31 +01:00
  • 553c54b82e Add .SRCINFO Patrick Ulbrich 2015-12-03 17:54:37 +01:00
  • 0a9551f3f7 Added link to cinnamon applet by hyOzd to README.md Patrick Ulbrich 2015-11-22 18:41:32 +01:00
  • 1af456ea37 Update AUTHORS Patrick Ulbrich 2015-04-23 18:11:51 +02:00
  • f8c339fd26 Merge pull request #98 from elleryq/zh_tw Patrick Ulbrich 2015-04-23 18:08:13 +02:00
  • 87a8020c9e Spamfilterplugin: Enforce min height of scrolled window (fixes too small winwow in GNOME 3.16) Patrick Ulbrich 2015-04-18 18:13:08 +02:00
  • d7ee148912 Don't suppress exceptions occuring in Account.get_connection() Patrick Ulbrich 2015-04-18 16:44:23 +02:00
  • a0371a0ee2 Remove accidently commited test output Patrick Ulbrich 2015-04-18 16:37:43 +02:00
  • 1288e531fa Rename srv into conn for the sake of consistancy Patrick Ulbrich 2015-04-18 14:09:52 +02:00
  • ab71cf6304 Fix unitilized conn bug Patrick Ulbrich 2015-04-18 13:55:06 +02:00
  • 384a4848b8 Add Traditional Chinese translation. elleryq 2015-04-13 11:15:56 +08:00
  • b501a18ba3 Add goaplugin.py and unityplugin.py to gitignore Patrick Ulbrich 2015-04-03 18:56:20 +02:00
  • 67fbc8fcdb Rename account.folder into account.folders and make it a list Patrick Ulbrich 2015-04-03 18:53:04 +02:00
  • 52b0a03c03 Move imaplib2 to common Patrick Ulbrich 2015-04-03 14:55:56 +02:00
  • 46c1f57b5c Update swedish translation Patrick Ulbrich 2015-03-28 19:58:40 +01:00
  • 04848977b7 Undo last commit Patrick Ulbrich 2015-02-22 14:56:36 +01:00
  • 6bfb3760ad Remove period from project description Patrick Ulbrich 2015-02-22 14:52:47 +01:00
  • 672b29d79c Update portuguese translation Patrick Ulbrich 2015-02-21 16:03:13 +01:00
  • 5caa89509a Update spanish translation Patrick Ulbrich 2015-02-16 18:41:26 +01:00
  • a248586f84 Update AUTHORS Patrick Ulbrich 2015-02-16 18:41:06 +01:00
  • d8f5d8c838 Update AUTHORS Patrick Ulbrich 2015-02-15 18:53:42 +01:00
  • 5f32561013 Update italian translation Patrick Ulbrich 2015-02-15 18:53:25 +01:00
  • 0a0c7f031b Update md5sum for release Patrick Ulbrich 2015-02-08 18:17:17 +01:00
  • d1bd48dc55 Update PKGBUILD based on suggestions by prurigro Patrick Ulbrich 2015-02-08 18:03:06 +01:00
  • b41e0fb650 Update NEWS v1.1.0 Patrick Ulbrich 2015-02-08 12:54:34 +01:00
  • 0da7753b6a Update manpages Patrick Ulbrich 2015-02-08 12:54:18 +01:00
  • a1ea385693 Update NEWS file Patrick Ulbrich 2015-02-07 19:56:22 +01:00
  • c1e7b573cb Update spanish translation Patrick Ulbrich 2015-02-07 19:30:26 +01:00
  • 14932f2fd2 Remove httplib2 dependency Patrick Ulbrich 2015-02-07 19:16:36 +01:00
  • 1207c0b8df Remove httplib2 dependency Patrick Ulbrich 2015-02-07 19:15:21 +01:00
  • 580ec8516a Remove httplib2 dependency from README.md Patrick Ulbrich 2015-02-07 19:14:00 +01:00
  • 3e56228e6e Update PKGBUILD based on suggestions by prurigro Patrick Ulbrich 2015-02-07 17:08:07 +01:00
  • e3676d872b Add appdata file for GNOME software Patrick Ulbrich 2015-02-05 17:48:37 +01:00
  • 9f393a17fd Update translations Patrick Ulbrich 2015-02-01 15:51:43 +01:00
  • 2713c1fb65 Remove warning message Patrick Ulbrich 2015-02-01 15:36:37 +01:00
  • 70f782ae5d Add mailnag-goa-plugin to optdepends Patrick Ulbrich 2015-02-01 15:34:16 +01:00
  • 337cae673d Add network-manager dependency Patrick Ulbrich 2015-02-01 15:30:31 +01:00
  • 1d995a0eb4 Update PKGBUILD (networkmanager dependency, version bumps) Patrick Ulbrich 2015-02-01 15:20:59 +01:00
  • d2207529de Regenerate translation template Patrick Ulbrich 2015-01-31 21:21:23 +01:00
  • 8c11afa06d Fix typo in README.md Patrick Ulbrich 2015-01-31 15:24:01 +01:00
  • dd79fc27a4 Fix README.md Patrick Ulbrich 2015-01-31 15:22:47 +01:00
  • df83727660 Update README.md Patrick Ulbrich 2015-01-31 15:21:55 +01:00
  • fb01f2586b Update AUTHORS Patrick Ulbrich 2015-01-31 15:04:35 +01:00
  • d958175a2a Regenerate translation template Patrick Ulbrich 2015-01-31 14:23:50 +01:00
  • 7386dc6f03 Soundplugin: fix path of soundfile Patrick Ulbrich 2015-01-31 14:16:12 +01:00
  • 1ac6ac0961 GnomeCredentialStore: more solid keyring access, migrate pre 1.1 keyring items Patrick Ulbrich 2015-01-31 13:27:40 +01:00
  • 897aabf158 Bump plugin versions due to internal mailnag api changes Patrick Ulbrich 2015-01-31 12:49:19 +01:00
  • 6390292046 Make GNOME keyring dependency optional Patrick Ulbrich 2015-01-27 17:37:42 +01:00
  • 67e2052f35 Make GNOME keyring dependency optional Patrick Ulbrich 2015-01-27 17:33:04 +01:00
  • 8d0b868c5e Fix copyright date Patrick Ulbrich 2015-01-27 17:23:48 +01:00
  • f01879c9c7 Add CredentialStore abstraction layer Patrick Ulbrich 2015-01-27 17:07:28 +01:00
  • 059d030ce0 Update AUTHORS Patrick Ulbrich 2015-01-04 14:32:14 +01:00
  • 424167e716 Update french translation (thanks poulp!) Patrick Ulbrich 2015-01-04 14:31:59 +01:00
  • 36543a269a Check if the environ key exists before accessing it (fixes #90) Patrick Ulbrich 2014-12-20 15:11:00 +01:00
  • 868d411d92 Regenerate translation template (with msgids for the unity plugin) Patrick Ulbrich 2014-12-19 22:52:31 +01:00
  • 9bf69c0290 Add optional networkmanager dependency to README.md Patrick Ulbrich 2014-12-19 22:07:31 +01:00
  • 6e8409b037 Regenerate translation template Patrick Ulbrich 2014-12-19 22:01:09 +01:00
  • 151e188751 bump up version Patrick Ulbrich 2014-12-19 21:39:41 +01:00
  • 01e06bc473 manpages: rename mailnagd.1 into mailnag.1 Patrick Ulbrich 2014-12-19 21:28:05 +01:00
  • dc8f1480f1 Misc improvements Patrick Ulbrich 2014-12-19 21:22:45 +01:00
  • 27a7f15cb3 Use UNIX linebreaks Patrick Ulbrich 2014-12-17 19:35:40 +01:00
  • 823125c899 Add --foreground and --verbose options as suggested in #87 Patrick Ulbrich 2014-12-15 22:39:15 +01:00
  • cc164571b1 Add file missing in last commit Patrick Ulbrich 2014-12-13 17:04:05 +01:00
  • 7408cafe8c Improved connectivity tests, other fixes. Closes #86, #87 Patrick Ulbrich 2014-12-13 17:02:54 +01:00
  • 7a3843d932 Allow plugins to remove accounts Patrick Ulbrich 2014-12-07 21:01:50 +01:00
  • d9a5291817 Don't pass the original AccountsList object to the ACCOUNTS_LOADED plugin hook Patrick Ulbrich 2014-12-06 16:51:49 +01:00
  • dece0102a8 Add ACCOUNTS_LOADED plugin hook, support OAuth2 authentication Patrick Ulbrich 2014-12-06 16:40:16 +01:00
  • ed01f98943 update translations Patrick Ulbrich 2014-11-22 12:34:01 +01:00
  • 46a97bd9ce update AUTHORS Patrick Ulbrich 2014-11-20 19:39:25 +01:00
  • 4b6e91e76b update AUTHORS Patrick Ulbrich 2014-10-10 19:02:29 +02:00
  • dc582c15d2 regenerated translation template Patrick Ulbrich 2014-07-30 21:35:08 +02:00
  • bca8ef1530 shorten mail notification strings fixes issue #72 Patrick Ulbrich 2014-07-30 21:32:23 +02:00
  • d38ac64f7f s/extendable/extensible Patrick Ulbrich 2014-07-30 20:53:51 +02:00
  • 2eea5a22be s/extendable/extensible Patrick Ulbrich 2014-07-30 20:52:33 +02:00
  • 40738c298d regenerated translation template Patrick Ulbrich 2014-07-30 20:48:48 +02:00
  • de0646df85 setup.py: s/extendable/extensible Patrick Ulbrich 2014-07-30 20:46:41 +02:00
  • 81b59efa29 cherry picked patched files (s/extendable/extensible/g) from Amin Bandali (thanks!) Patrick Ulbrich 2014-07-30 20:09:53 +02:00
  • 5cb89a99f2 updated AUTHORS file Patrick Ulbrich 2014-07-30 19:10:27 +02:00
  • f20d0b7a48 replaced italian translation with po file from 'Man from Mars' (thanks) Patrick Ulbrich 2014-07-30 19:03:04 +02:00
  • e66026d6ca Merge pull request #78 from simyaci/master Patrick Ulbrich 2014-07-30 18:58:41 +02:00
  • 69bae59481 Create tr.po Aydın Yakar 2014-07-23 16:00:06 +03:00
  • 1b3dc82e38 changed section to 'mail' Patrick Ulbrich 2014-07-13 16:26:04 +02:00
  • 254bd76aac fixed PKGBUILD Patrick Ulbrich 2014-07-13 16:21:07 +02:00
  • 3a0802b05a revert commit 6005c0f Patrick Ulbrich 2014-07-13 13:47:18 +02:00
  • 6005c0fafa updated changelog date Patrick Ulbrich 2014-07-13 13:22:16 +02:00
  • 85c34d1573 updated packaging based on package files by vincent cheng Patrick Ulbrich 2014-07-13 12:37:07 +02:00
  • ddaf1778a6 removed postinst and postrm scripts (triggered by hicolor-icon-theme dependency) Patrick Ulbrich 2014-07-13 11:59:58 +02:00
  • 354e2bec19 updated PKGBUILD for the 1.0.0 release Patrick Ulbrich 2014-07-13 11:57:14 +02:00
  • 9750cedec5 updated screenshot in README.md v1.0.0 Patrick Ulbrich 2014-06-28 21:40:25 +02:00